Weather in Kirovsk

Russia / Murmansk Oblast     67°36′43″N   33°40′05″E
temp.,
°C
wind,
m/s
gust,
m/s
humid.,
%
clouds,
%
prec.,
mm/h
press.,
hPa
HPBL,
m
1 december, wed
wed100:00−8ene71774100 0.0 990956
03:00−8ene71774100 0.0 9871056
06:00−8ene71890100 0.5 9861297
09:00−8ene71792100 2.4 9861335
12:00−8ene61593100 2.4 9871258
15:00−8ene51394100 4.4 9871178
18:00−9ene51393100 1.3 9891127
21:00−9ene51490100 2.0 9901161
2 december, thu
thu200:00−8ene61787100 0.3 9901336
03:00−7ene5169199 0.6 9901377
06:00−6ene61693100 0.9 9911304
09:00−6ene61687100 1.3 9931366
12:00−5ene61589100 0.3 9961410
15:00−6ne5148575 0.3 9971102
18:00−8nne368993 0.1 999154
21:00−9nne369496 0.2 1002170
3 december, fri
fri300:00−12n339445 0.0 100440
03:00−13n329455 0.0 100627
06:00−14n329466 0.0 100727
09:00−14nne229436 0.0 100933
12:00−13nne349245 0.0 101051
15:00−13nne349345 0.0 101246
18:00−13nne359461 0.0 101365
21:00−13ne269571 0.1 1014104
4 december, sat
sat400:00−13ne369550 0.1 101694
03:00−12ne379364 0.1 1016126
06:00−13ne389055 0.0 1016155
09:00−14ne38885 0.0 1017118
12:00−15ne37885 0.0 1018113
15:00−16nne34895 0.0 101951
18:00−16nne229152 0.0 101922
21:00−13n2290100 0.0 102031
5 december, sun
sun500:00−12nne119678 0.0 102128
03:00−15n219640 0.0 102311
06:00−16n219627 0.0 102411
09:00−15n219516 0.0 102510
12:00−15nnw219316 0.0 102710
15:00−16nw229316 0.0 102811
18:00−15wnw229118 0.0 102816
21:00−16wnw239333 0.0 102937